Location: Hauptwil
(47.4797°N, 9.2522°E)
Time: 05:31:02
(UTC+00:00)

Daily predictions for brighter satellites

Satellite Brightness Start Highest point End
(mag) Time Altitude Azimuth Time Altitude Azimuth Time Altitude Azimuth
SL-16 R/B 3.9 00:12:20 35° NNE 00:12:20 35° NNE 00:16:22 10° N
Cosmos 1943 Rocket 4.3 00:17:16 22° N 00:17:16 22° N 00:19:42 10° NNE
CZ-2D R/B 4.3 00:18:40 10° NNE 00:20:45 21° NE 00:20:45 21° NE
Cosmos 2297 Rocket 4.0 00:25:28 10° NNW 00:28:49 28° NNE 00:28:49 28° NNE
Resurs 1-4 Rocket 4.1 00:32:32 10° NNE 00:34:54 25° NE 00:34:54 25° NE
Cosmos 2369 Rocket 4.1 00:41:05 23° NNW 00:41:05 23° NNW 00:43:53 10° NNE
CZ-4C R/B 4.2 00:47:10 22° NNW 00:48:04 22° NNW 00:53:08 10° NE
USA 267 4.4 00:50:45 10° ENE 00:54:57 32° E 00:54:57 32° E
Cosmos 2218 Rocket 4.4 01:19:00 10° N 01:24:06 59° N 01:24:06 59° N
Cosmos 2227 Rocket 3.6 01:22:15 10° NNW 01:25:13 32° NNW 01:25:13 32° NNW
Cosmos 2366 rocket 4.4 01:21:36 10° N 01:26:34 58° N 01:26:34 58° N
Lacrosse 5 3.8 01:32:48 23° E 01:32:48 23° E 01:35:24 10° ENE
USA 234 3.6 01:26:29 10° ESE 01:32:54 62° NNE 01:37:43 19° NW
ADEOS II 2.8 01:34:19 10° NNE 01:38:28 50° NE 01:38:28 50° NE
CZ-4B R/B 4.3 01:37:02 10° NNE 01:40:48 48° NE 01:40:48 48° NE
SL-08 R/B 4.4 01:47:13 41° NNE 01:47:13 41° NNE 01:50:40 10° N
Cosmos 2181 Rocket 4.3 01:47:57 57° NNW 01:47:57 57° NNW 01:53:00 10° N
IDEFIX/ARIANE 42P 4.0 01:47:41 10° NNE 01:52:24 32° E 01:53:41 29° ESE
SL-16 R/B 4.0 01:57:26 23° NW 01:57:26 23° NW 01:59:59 10° NNW
Cosmos 1151 Rocket 4.3 02:00:39 39° NE 02:00:39 39° NE 02:03:50 10° NNE
ARIANE 5 R/B 3.2 01:56:37 10° NNE 02:01:34 48° E 02:01:51 47° ESE
IRS-1D 3.9 01:57:17 10° NNE 02:01:47 62° N 02:01:47 62° N
CZ-2D R/B 3.3 01:58:38 10° N 02:02:04 32° NNW 02:02:04 32° NNW
ATLAS 5 CENTAUR R/B 3.1 02:07:56 30° N 02:07:56 30° N 02:11:16 10° NNE
Cosmos 2297 Rocket 4.2 02:09:24 10° NW 02:10:32 16° NW 02:10:32 16° NW
CBERS-1 4.4 02:09:46 10° N 02:13:59 55° NNW 02:13:59 55° NNW
Cosmos 1933 4.5 02:18:15 41° NNE 02:18:15 41° NNE 02:21:00 10° NNE
Resurs 1-4 Rocket 3.5 02:12:41 10° N 02:15:58 27° NW 02:15:58 27° NW
Cosmos 2082 3.6 02:13:30 10° NNW 02:19:13 87° WSW 02:20:23 59° SSE
USA 305 3.9 02:22:42 42° ESE 02:22:42 42° ESE 02:25:56 10° ENE
USA 306 3.7 02:26:37 46° ESE 02:26:37 46° ESE 02:30:01 10° ENE
X-37B 3.3 02:29:08 16° E 02:29:08 16° E 02:29:59 10° E
CZ-2D R/B 3.9 02:24:30 10° NNE 02:28:40 58° E 02:28:45 58° ESE
SJ 16-02 3.6 02:25:39 10° N 02:29:18 25° ENE 02:32:56 10° ESE
Meteor 1-25 Rocket 4.1 02:25:22 10° NNW 02:31:13 84° W 02:33:00 47° S
Cosmos 389 Rocket 3.9 02:32:19 34° E 02:32:19 34° E 02:35:35 10° NNE
Cosmos 1697 Rocket 2.6 02:32:33 66° SSW 02:33:24 88° ESE 02:39:03 10° NNE
ASTEX 1 3.6 02:29:43 10° N 02:34:43 68° E 02:36:22 41° SSE
IRS-P3 4.0 02:29:52 10° N 02:35:10 66° WNW 02:35:28 65° W
H-2A R/B 3.2 02:32:45 10° SE 02:36:53 44° ENE 02:41:08 10° N
Cosmos 1980 Rocket 2.7 02:35:20 34° SSE 02:37:33 54° ESE 02:43:04 10° NE
CZ-2C R/B 4.4 02:34:21 10° NE 02:38:43 28° E 02:43:06 10° SSE
USA 267 3.2 02:33:35 10° NE 02:40:08 78° NNW 02:42:17 46° WSW
Iridium 2 4.5 02:39:48 45° ESE 02:40:15 48° E 02:43:53 10° NNE
ERS-2 4.5 02:37:21 10° ESE 02:40:22 25° ENE 02:43:25 10° N
Cosmos 1602 4.2 02:40:15 10° N 02:43:13 52° N 02:43:13 52° N
ERS-1 4.4 02:39:47 10° N 02:44:54 73° WNW 02:45:43 60° SW
NOSS 2-2 (E) 4.5 02:39:39 10° NW 02:45:23 74° SW 02:53:22 10° SSE
Cosmos 2263 Rocket 3.2 02:39:58 10° NNW 02:45:24 46° NE 02:50:51 10° SE
SL-8 R/B 3.6 02:46:01 70° WNW 02:46:35 90° NE 02:51:23 10° ESE
Cosmos 1818 4.5 02:46:11 33° WNW 02:46:58 34° NW 02:51:57 10° NNE
Meteor 1-14 Rocket 4.2 02:42:18 10° N 02:47:58 79° ENE 02:53:31 10° SSE
SL-16 R/B 4.4 02:46:49 10° SSE 02:51:00 22° E 02:55:11 10° NE
ATLAS 2AS CENTAUR R/B 4.4 02:44:33 10° NW 02:51:29 34° NNE 02:57:57 10° E
USA 307 2.7 02:52:25 75° S 02:52:39 78° SSE 02:56:55 10° ENE
NOSS 2-2 (D) 4.4 02:48:11 10° NW 02:53:49 76° SW 03:01:40 10° SSE
Cosmos 1821 Rocket 4.1 02:48:23 10° NNW 02:54:30 53° W 02:56:29 39° SW
Cosmos 1812 4.5 02:52:18 11° SSE 02:55:33 31° E 02:59:00 10° NNE
USA 308 2.7 02:55:23 73° SSW 02:55:44 82° SSE 03:00:00 10° ENE
Cosmos 1470 Rocket 3.7 02:51:32 10° NNW 02:55:25 54° WNW 02:55:25 54° WNW
Spot 4 Rocket 3.9 02:52:38 10° NNE 02:57:49 81° WNW 02:59:44 40° SSW
SL-24 R/B 4.5 02:59:50 49° W 02:59:50 49° W 03:04:48 10° NNW
Cosmos 1500 4.0 02:57:06 10° N 03:00:52 51° ENE 03:04:36 10° SSE
Landsat 5 3.6 03:00:22 10° SSE 03:04:53 84° ENE 03:09:25 10° NNW
Cosmos 1934 Rocket 3.8 03:03:35 10° NNW 03:09:36 68° W 03:15:36 10° S
Cosmos 1777 Rocket 4.2 03:05:24 10° NW 03:10:21 43° WSW 03:12:06 32° SSW
Cosmos 1782 2.8 03:10:11 55° WSW 03:10:33 58° W 03:14:35 10° N
ERBS 4.4 03:09:57 16° SSE 03:11:13 20° SE 03:13:44 10° E
Cosmos 1238 Rocket 3.9 03:05:14 10° NNW 03:11:53 73° W 03:18:03 10° S
Lacrosse 5 1.9 03:12:00 40° WSW 03:13:45 71° NW 03:18:51 10° NE
ADEOS Rocket 3.7 03:08:44 10° SSE 03:15:29 62° ENE 03:21:34 10° N
CZ-4B R/B 3.5 03:12:58 10° SE 03:15:41 27° ENE 03:18:29 10° N
USA 234 3.3 03:09:39 10° SSE 03:16:01 53° SW 03:22:23 10° WNW
Cosmos 1515 Rocket 3.7 03:15:08 43° WSW 03:16:06 52° WNW 03:20:29 10° N
CZ-2C R/B 2.6 03:13:47 10° N 03:17:32 67° WNW 03:18:32 45° SW
ADEOS II 3.4 03:14:50 10° N 03:18:48 22° WNW 03:19:23 22° WNW
Nadezhda 3 Rocket 4.5 03:18:39 30° WSW 03:20:46 39° WNW 03:26:31 10° N
USA 276 2.4 03:21:38 50° NW 03:22:08 60° N 03:25:21 10° ENE
Cosmos 972 Rocket 4.4 03:24:16 32° W 03:25:40 39° WNW 03:30:17 10° N
Cosmos 44 3.0 03:24:49 29° SSW 03:27:05 86° ESE 03:31:45 10° NE
MSX 3.9 03:22:36 10° N 03:28:19 63° WNW 03:32:39 18° SSW
Cosmos 1356 3.6 03:25:02 10° NNW 03:28:21 44° W 03:28:28 44° WSW
IRIDIUM 103 4.3 03:24:45 10° N 03:30:00 87° E 03:35:14 10° S
Cosmos 921 Rocket 2.9 03:27:48 18° SSW 03:30:53 81° ESE 03:35:05 10° NNE
Cosmos 2278 3.8 03:28:10 26° SW 03:31:22 59° WNW 03:37:02 10° NNE
IDEFIX/ARIANE 42P 3.1 03:27:10 10° N 03:32:04 40° WNW 03:34:29 25° WSW
Cosmos 1605 Rocket 4.0 03:26:02 10° NNW 03:32:24 71° W 03:38:45 10° S
Meteor 1-11 Rocket 4.1 03:26:44 10° N 03:32:35 68° ENE 03:38:14 10° SSE
Cosmos 1933 Rocket 4.2 03:29:14 10° NNW 03:33:10 33° W 03:34:18 29° WSW
CZ-3B R/B 3.2 03:32:05 22° WNW 03:34:09 45° N 03:44:08 10° ENE
Cosmos 2228 Rocket 3.0 03:31:12 19° SSW 03:34:14 64° W 03:38:38 10° N
Cosmos 2369 4.4 03:36:41 24° WSW 03:39:29 38° NW 03:44:50 10° NNE
ARIANE 5 R/B 3.6 03:36:14 10° N 03:40:25 26° WNW 03:42:10 21° W
Cosmos 1937 Rocket 4.2 03:38:18 10° NNW 03:43:24 58° ENE 03:48:28 10° SE
CZ-4C R/B 3.8 03:42:39 26° SW 03:43:45 31° W 03:47:00 10° NNW
ALOS 3.5 03:42:52 10° NNE 03:47:20 44° E 03:51:47 10° S
Cosmos 1733 Rocket 4.2 03:43:08 10° N 03:47:22 46° ENE 03:51:32 10° SSE
Meteor 1-27 Rocket 4.3 03:41:45 10° S 03:47:38 65° E 03:53:29 10° NNE
IRIDIUM 106 4.3 03:43:07 10° N 03:48:19 66° W 03:53:29 10° S
Cosmos 1536 3.3 03:47:05 10° N 03:51:09 66° ENE 03:55:12 10° SSE
Cosmos 1869 Rocket 3.6 03:48:01 10° NNW 03:52:15 52° W 03:56:26 10° S
ATLAS 5 CENTAUR R/B 4.0 03:50:33 10° NW 03:53:06 14° N 03:55:51 10° NNE
GENESIS II 4.3 03:51:47 14° SSW 03:55:14 81° SE 03:59:18 10° NE
Cosmos 1484 Rocket 3.7 03:52:16 10° NNE 03:56:11 53° E 04:00:06 10° S
Meteor 1-4 Rocket 2.3 03:53:02 10° SSW 03:56:29 71° WNW 03:59:59 10° N
USA 305 3.4 03:58:51 17° W 04:01:53 48° NNW 04:06:01 10° ENE
X-37B 1.0 04:01:25 20° WSW 04:03:20 50° S 04:06:26 10° ESE
Cosmos 1689 Rocket 3.4 04:01:13 10° SSE 04:04:03 44° ENE 04:06:56 10° N
USA 306 3.5 04:02:46 16° W 04:05:58 46° NNW 04:10:07 10° ENE
Cosmos 1727 Rocket 4.0 04:00:33 10° SSW 04:06:52 69° WNW 04:13:13 10° N
Cosmos 1763 Rocket 3.6 04:01:35 10° SSW 04:06:55 86° ESE 04:12:15 10° NNE
Meteor 1-31 Rocket 3.5 04:03:11 10° NNE 04:06:58 56° E 04:10:44 10° S
Cosmos 2100 Rocket 4.1 04:00:37 10° N 04:07:03 89° E 04:13:25 10° S
Cosmos 389 Rocket 4.2 04:06:12 15° W 04:07:09 17° WNW 04:09:34 10° NNW
SJ 16-02 1.8 04:03:55 10° NW 04:08:00 39° WSW 04:12:05 10° S
Cosmos 1802 Rocket 4.3 04:03:11 10° N 04:09:23 72° E 04:15:36 10° SSE
PSLV R/B 4.0 04:05:29 10° N 04:09:27 40° WNW 04:13:22 10° SW
Cosmos 2360 Rocket 3.6 04:06:20 10° S 04:11:35 41° ESE 04:16:52 10° NE
H-2A R/B 3.3 04:09:43 10° SW 04:13:04 21° W 04:16:29 10° NW
ERS-2 3.0 04:10:42 10° SSW 04:13:50 27° W 04:17:01 10° NW
CZ-2C R/B 2.9 04:12:14 10° N 04:17:04 45° WNW 04:21:58 10° SW
Cosmos 1697 Rocket 4.2 04:14:19 11° W 04:18:09 20° NW 04:22:18 10° N
NOSS 3-4 (A) 4.0 04:12:16 10° NW 04:19:15 82° NE 04:27:00 10° SE
NOSS 3-4 (C) 4.0 04:12:23 10° NW 04:19:21 82° NE 04:27:07 10° SE
Gbstr 26 Del rocket 4.4 04:12:12 10° WNW 04:20:10 68° SW 04:27:06 10° SE
PAYLOAD A 4.5 04:16:19 10° N 04:20:34 34° WNW 04:24:48 10° SW
METEOR-M 4.4 04:16:06 10° NNE 04:21:29 76° ESE 04:26:50 10° S
Cosmos 1980 Rocket 3.2 04:17:07 11° WSW 04:21:51 30° NW 04:26:50 10° NNE
USA 267 4.0 04:16:38 10° NE 04:22:43 43° NNW 04:28:47 10° W
FENGYUN 3A 3.7 04:19:24 10° NNE 04:24:50 86° WNW 04:30:14 10° SSW
Cosmos 2322 Rocket 2.3 04:21:09 10° SSW 04:26:50 88° WNW 04:32:35 10° NNE
Cosmos 990 Rocket 4.3 04:22:50 10° NW 04:27:41 42° WSW 04:32:34 10° S
Cosmos 1459 Rocket 3.9 04:22:42 10° NNW 04:28:47 69° W 04:34:46 10° S
SL-8 R/B 4.3 04:24:26 10° W 04:28:53 39° SSW 04:33:19 10° SE
NOSS 3-3 (A) 4.2 04:23:10 10° WSW 04:28:57 58° NW 04:35:35 10° NE
NOSS 3-3 (C) 4.1 04:23:20 10° WSW 04:29:04 58° NW 04:35:39 10° NE
Cosmos 2263 Rocket 2.9 04:24:12 10° NW 04:29:10 32° WSW 04:34:07 10° SSW
SJ-12 4.5 04:25:05 10° NNE 04:29:12 64° E 04:33:18 10° S
CZ-4C R/B 4.1 04:22:56 10° NW 04:29:25 42° NE 04:36:56 10° ESE
Cosmos 1812 4.0 04:28:24 10° WSW 04:31:24 21° WNW 04:34:26 10° NNW
Cosmos 468 Rocket 4.2 04:26:25 10° SW 04:31:37 55° WNW 04:36:49 10° NNE
Cosmos 2123 Rocket 4.5 04:25:33 10° S 04:31:43 69° E 04:37:59 10° NNE
USA 307 3.8 04:28:58 10° W 04:32:59 39° NNW 04:37:00 10° ENE
SL-16 R/B 2.3 04:28:56 10° SW 04:34:34 66° WNW 04:40:15 10° NNE
COSMO-SKYMED 1 2.6 04:31:15 10° SSE 04:35:35 87° WSW 04:39:57 10° NNW
USA 308 3.8 04:32:05 10° W 04:36:06 38° NNW 04:40:07 10° ENE
Cosmos 1844 Rocket 3.1 04:30:44 10° NNW 04:36:23 72° ENE 04:42:02 10° SE
SL-4 R/B 3.2 04:34:56 10° SW 04:39:24 49° SE 04:44:03 10° ENE
Cosmos 540 Rocket 3.6 04:35:00 10° SSW 04:40:09 87° ESE 04:45:23 10° NNE
Cosmos 44 Rocket 4.1 04:37:10 10° SSW 04:41:45 54° ESE 04:46:30 10° NE
ATLAS CENTAUR R/B 3.3 04:33:18 10° NW 04:42:16 56° NNE 04:45:54 10° ESE
ATLAS 2AS CENTAUR R/B 2.9 04:35:47 10° NW 04:43:22 87° SW 04:50:18 10° SE
